Temperature
21 19 19 20 21 22 23 22 22 22 23 23 22 21 21 20 20 19 19 19 19 19 19 19 19 19 18 18 18 18 18 18 17 17 17 17 17 17 17 17 17 17 17 17
20 20 20 21 22 22 22 22 21 22 23 23 22 21 21 20 20 20 19 19 19 19 19 19 19 19 18 18 18 18 18 17 17 17 17 17 17 17 17 17 17 17 17 17
20 21 22 22 22 22 22 21 22 22 22 22 22 21 21 20 20 20 20 19 19 19 19 19 19 18 18 18 18 18 18 18 17 17 17 17 17 17 17 17 17 17 17 17
20 21 22 22 22 22 21 22 22 23 21 20 21 20 20 20 19 19 19 19 19 19 19 19 19 19 18 18 18 18 18 18 17 17 17 17 17 17 17 17 17 17 17 16
20 22 22 22 22 22 22 23 23 22 21 20 20 20 19 19 19 19 19 19 19 19 19 19 19 19 19 18 18 18 18 18 17 17 17 17 17 17 17 17 17 17 17 17
21 22 23 22 23 23 23 22 20 18 18 20 20 20 20 18 19 19 19 19 19 19 19 19 19 19 18 18 18 18 18 18 17 17 17 17 17 17 17 17 17 17 17 17
22 22 23 23 24 24 22 20 19 20 18 19 19 19 19 20 19 19 19 19 19 19 19 19 19 18 18 18 18 18 18 18 17 17 17 17 17 17 17 17 17 17 17 17
20 20 22 22 22 22 21 20 19 20 20 19 19 19 19 20 20 20 20 19 19 19 19 19 19 19 19 18 18 18 18 18 17 17 17 17 17 17 17 17 17 17 17 17
19 20 22 23 23 22 20 19 19 18 19 19 19 19 19 20 19 19 19 18 18 19 19 20 19 19 19 19 18 18 18 18 17 17 17 17 17 17 17 17 17 17 17 17
19 21 23 24 23 23 21 18 17 17 18 20 20 20 19 21 20 19 18 18 18 19 20 20 20 19 19 19 18 18 18 18 18 17 17 17 17 17 17 17 17 17 17 17
20 21 22 23 23 22 20 19 17 16 17 18 20 20 20 19 19 18 18 19 19 19 20 20 20 19 19 18 18 18 18 17 17 17 17 17 17 17 17 17 17 17 17 17
19 18 19 21 22 22 21 19 17 19 18 17 18 19 20 18 18 18 18 19 19 20 20 20 20 19 19 18 18 18 18 18 17 17 17 17 17 17 17 17 17 17 16 16
19 18 19 20 21 21 21 20 18 16 16 16 18 20 19 18 18 18 18 19 19 19 19 19 19 19 19 19 18 18 18 18 17 17 17 17 17 17 17 17 17 16 16 16
18 17 19 20 20 20 21 20 18 18 17 17 18 20 19 18 18 17 18 18 19 19 19 19 19 19 19 19 18 18 18 17 17 17 17 17 17 17 17 17 16 16 16 16
18 18 19 19 20 21 22 21 20 20 19 19 20 19 19 18 17 17 18 18 18 18 19 19 19 19 19 18 18 18 18 17 17 17 17 17 17 17 16 16 16 16 16 16
16 18 19 20 20 21 21 21 21 20 20 20 20 19 18 17 17 17 17 18 17 18 18 18 19 19 19 18 18 18 18 17 17 17 17 17 16 16 16 16 16 16 15 15
15 17 18 18 20 21 20 19 19 19 18 19 19 19 16 16 16 16 17 17 17 17 18 18 18 18 18 18 18 18 18 17 17 17 16 16 16 16 16 16 15 15 15 15
15 15 14 16 19 20 19 18 19 18 17 17 17 16 16 15 16 16 17 17 17 17 18 18 18 18 18 18 18 17 17 17 17 16 16 16 16 16 15 15 15 15 14 14
14 15 14 15 17 18 19 18 18 18 17 16 16 16 15 15 16 16 17 17 17 17 18 18 18 18 18 18 17 17 17 17 16 16 16 15 15 15 15 14 14 14 14 13
13 13 14 14 17 17 18 18 17 17 17 16 15 15 15 16 16 15 16 16 17 17 17 17 17 17 17 17 17 17 16 16 16 15 15 15 15 15 14 14 14 13 13 13
14 14 14 15 16 16 16 16 17 18 17 16 15 15 15 15 15 16 16 16 16 16 17 17 17 17 17 16 16 16 16 16 15 15 15 14 14 14 14 13 13 13 12 12
14 14 14 13 15 15 15 15 16 15 15 15 15 15 15 15 15 15 15 15 16 16 16 16 16 16 16 16 16 16 15 15 14 14 14 13 13 13 13 13 12 12 12 11
12 13 12 13 13 13 13 14 14 15 15 15 15 15 15 15 15 15 15 15 15 15 15 15 15 15 15 15 15 15 14 14 14 13 13 13 13 12 12 12 11 11 11 11
13 11 12 12 13 13 13 14 14 15 15 15 15 15 15 15 15 14 14 14 14 14 14 14 14 14 14 14 14 14 13 13 13 13 12 12 12 11 11 11 11 10 10 10
12 12 12 12 12 13 13 14 14 14 15 15 15 15 15 14 14 14 14 14 14 14 13 13 13 13 13 13 13 13 13 13 12 12 11 11 11 11 10 10 10 9 9 9
11 11 12 12 12 12 13 13 14 14 14 14 14 14 14 14 13 13 13 13 13 13 13 13 13 12 12 12 12 12 12 12 12 11 11 11 10 10 10 9 9 8 8 8
Wind_Speed
5 4 6 8 8 6 3 3 8 9 5 3 3 4 4 2 3 4 4 5 6 6 5 7 7 9 10 10 11 11 11 9 8 6 5 5 4 4 4 4 7 9 9 10
4 5 9 6 5 4 4 5 7 8 3 1 3 4 3 2 4 4 5 6 7 6 6 7 8 9 11 12 12 11 11 10 9 7 5 4 4 3 3 3 5 7 9 9
9 6 5 7 5 5 5 6 7 6 5 4 2 6 4 2 1 3 3 5 6 8 9 9 10 10 11 12 13 12 10 9 9 8 6 5 4 3 2 3 3 5 8 9
6 7 4 5 6 7 6 7 7 4 2 4 2 3 7 4 4 4 3 3 6 7 7 9 10 11 11 11 10 10 10 10 10 9 9 9 6 5 5 5 4 5 7 8
8 6 8 9 9 9 8 2 2 2 3 1 2 2 8 3 5 6 4 4 5 6 8 9 9 10 10 10 9 9 9 9 9 9 9 8 6 4 4 4 5 5 4 6
7 5 7 9 7 8 5 5 6 6 5 1 3 3 7 5 6 4 3 4 5 6 6 7 6 7 8 8 9 9 10 9 9 10 9 9 9 7 7 6 6 5 3 3
5 5 6 6 3 1 5 5 4 4 4 6 3 3 9 7 5 5 5 5 5 6 6 8 8 8 8 9 9 9 10 9 9 10 9 9 9 9 9 8 7 6 4 4
6 7 6 8 10 8 7 10 8 6 5 5 3 5 7 5 3 2 3 6 7 7 8 9 9 9 9 9 9 9 10 9 9 9 9 8 8 7 6 7 7 7 6 6
9 7 6 6 7 11 8 6 8 7 3 1 5 7 8 1 0 1 3 6 8 8 8 9 9 8 8 8 8 9 9 8 9 9 8 8 8 7 7 7 6 6 5 6
11 5 5 2 5 2 7 10 7 7 7 3 5 5 5 5 3 3 4 6 7 7 7 7 7 7 6 6 7 7 8 8 8 9 9 8 8 8 7 7 7 7 6 6
8 6 4 3 3 6 6 6 6 6 6 7 3 7 6 7 6 6 6 6 7 8 8 7 6 6 6 6 6 7 7 7 8 8 8 7 7 7 6 6 7 6 6 6
7 6 3 4 4 3 6 8 8 7 4 5 5 8 5 4 4 5 5 4 5 6 6 7 7 7 7 6 6 6 6 7 7 7 7 7 6 6 6 6 6 6 6 6
7 7 3 4 5 2 3 4 5 7 6 6 5 7 3 1 2 3 4 3 4 5 6 6 6 6 7 6 5 5 5 6 6 6 7 6 6 6 6 6 5 6 6 6
6 5 7 10 8 5 3 4 6 7 5 6 7 7 5 3 3 2 3 2 4 4 5 6 6 6 5 5 5 5 4 5 6 6 6 6 6 6 6 5 5 6 6 7
5 4 3 3 3 5 4 5 6 5 8 8 8 7 7 6 4 4 4 4 4 4 5 6 6 5 5 5 5 4 4 4 5 6 6 6 5 6 6 6 6 6 6 7
4 4 3 2 1 4 3 2 4 4 4 4 3 6 3 1 2 3 4 5 5 5 5 6 6 6 5 5 5 5 4 4 5 6 5 5 6 6 6 6 7 7 7 7
3 5 4 1 1 4 2 2 3 3 1 4 6 5 1 1 2 3 4 5 5 5 5 5 5 5 5 5 5 6 5 5 6 5 5 5 6 7 7 7 7 7 7 7
6 5 4 3 3 4 5 2 4 5 2 1 1 0 1 2 2 2 2 4 5 4 4 4 4 4 4 4 5 5 6 6 7 6 6 6 7 8 8 8 8 8 7 8
4 7 5 4 4 2 2 1 2 4 0 1 2 2 3 4 4 3 3 2 3 3 4 4 4 5 5 6 6 7 7 7 7 7 7 7 8 8 9 9 9 9 9 9
6 5 6 5 5 7 6 2 1 4 1 2 3 3 3 3 2 2 1 3 3 3 4 4 5 6 6 6 8 9 8 8 7 7 8 8 8 9 10 10 10 10 10 10
4 4 4 4 4 5 3 3 1 5 6 3 3 4 3 2 3 3 3 3 3 4 4 5 6 6 5 6 8 9 9 8 8 9 10 10 10 10 11 11 10 11 11 11
4 4 3 4 3 6 2 1 4 4 1 1 1 2 2 2 3 4 4 4 5 5 5 6 7 7 6 6 9 10 9 9 10 11 12 11 11 11 11 12 11 11 11 12
3 4 5 5 5 2 2 1 2 1 1 1 1 1 3 3 3 3 4 4 5 5 5 5 7 8 7 7 8 11 8 10 12 13 13 12 12 11 10 11 11 10 9 9
0 2 3 1 2 1 1 1 2 2 1 1 1 1 2 3 4 4 5 5 5 5 6 6 8 9 8 8 9 10 10 11 13 14 13 12 13 12 11 9 9 9 8 9
2 2 2 1 2 1 2 2 2 3 2 2 1 1 3 4 4 5 6 6 6 6 6 7 8 10 10 10 10 10 10 13 14 14 13 12 12 13 12 11 9 9 7 7
2 4 5 5 5 4 3 2 2 2 2 2 2 3 3 4 6 7 7 7 7 8 8 9 10 11 10 11 11 10 9 12 14 13 12 10 11 11 11 12 13 17 14 16
Wind_Direction
137 118 195 203 191 191 200 260 283 280 294 327 294 290 285 218 175 171 180 190 194 189 166 153 159 166 163 168 170 175 172 169 160 158 160 161 170 165 162 165 171 173 169 167
88 234 221 195 186 194 221 274 284 295 339 328 306 304 291 226 215 204 197 202 194 172 163 166 167 172 175 177 178 179 176 168 167 168 159 154 149 151 152 152 161 168 165 164
181 223 190 178 201 215 239 227 251 268 329 4 7 325 303 286 249 221 207 194 190 182 177 176 177 178 178 181 181 181 177 169 167 158 141 131 113 100 128 157 167 169 169 168
217 239 205 205 219 192 255 233 228 251 303 301 45 291 292 287 293 252 223 178 188 181 176 180 180 182 183 183 177 172 171 169 164 160 166 166 169 174 186 177 174 164 167 167
221 208 193 214 223 187 221 223 207 246 186 310 355 187 285 311 275 257 224 190 186 181 178 180 176 176 174 175 172 169 166 169 164 170 175 172 174 174 159 153 160 164 164 167
225 217 194 205 213 192 184 73 52 49 76 303 252 187 277 254 240 255 214 190 177 176 171 164 158 156 159 162 165 166 169 170 167 173 177 177 176 167 161 169 172 170 164 166
269 256 227 187 199 198 130 96 27 358 9 251 263 217 251 260 244 230 207 188 172 171 164 157 157 162 166 168 170 171 173 175 172 176 181 182 181 177 181 181 182 175 174 180
205 271 230 195 190 187 174 149 162 195 222 271 306 242 258 267 252 216 178 167 165 170 172 171 173 172 173 173 172 173 178 180 176 177 181 182 180 180 187 185 182 184 187 186
185 245 273 221 187 152 145 177 164 137 150 266 286 286 304 251 234 132 150 162 174 178 177 175 170 169 171 173 174 175 178 178 180 180 177 179 180 181 187 185 184 188 187 183
160 221 283 288 104 98 145 143 111 129 150 222 288 283 258 265 235 199 188 185 183 177 171 166 165 164 168 170 168 167 175 183 184 183 184 186 184 185 185 180 185 189 188 181
150 176 293 21 152 174 122 113 114 118 147 156 227 269 231 228 218 199 201 196 183 176 174 165 160 159 160 159 163 170 176 177 181 184 184 181 183 182 177 182 188 185 181 176
156 142 224 266 273 199 152 158 147 148 185 166 171 260 280 218 205 197 204 194 177 170 163 156 152 154 157 163 166 172 178 182 183 178 175 177 174 172 177 188 186 178 176 174
138 129 125 339 338 16 112 135 137 122 118 146 166 260 323 97 164 187 192 188 166 153 146 146 147 152 157 163 167 170 175 180 172 166 168 171 174 176 181 184 176 168 166 160
124 120 163 191 207 190 158 148 147 125 138 177 211 242 280 261 221 193 179 165 144 146 151 152 151 153 155 159 158 161 171 172 166 162 164 174 184 181 175 164 155 154 151 147
108 130 168 205 200 159 167 169 164 157 171 173 214 221 248 245 221 198 167 144 139 144 151 157 154 151 151 154 153 157 162 158 157 156 164 177 174 164 152 145 140 135 137 140
75 123 117 31 45 144 131 146 153 150 160 178 189 241 267 308 122 141 154 153 157 162 156 157 155 152 153 156 156 158 157 151 143 151 164 159 150 144 139 137 133 129 126 124
89 116 111 185 317 86 147 226 164 143 163 167 194 230 326 57 121 157 166 162 161 161 156 157 158 153 153 155 158 160 154 139 137 141 139 131 131 131 130 128 123 121 116 108
131 109 118 133 116 184 239 318 133 124 83 354 227 199 141 142 125 85 125 144 146 148 146 145 149 148 142 136 140 138 133 133 134 131 123 118 121 120 117 115 112 105 100 99
144 134 120 126 154 210 260 182 145 144 225 310 141 104 100 112 86 51 51 83 139 142 137 134 141 143 139 137 138 130 126 127 128 127 122 122 120 119 116 113 108 104 100 94
59 93 116 128 150 206 224 255 252 116 252 236 154 155 154 119 117 215 84 81 95 106 117 124 123 119 125 130 130 125 124 123 124 123 120 117 116 115 112 110 106 100 97 94
55 58 109 142 178 240 256 299 114 162 223 208 179 179 166 173 195 175 126 102 100 98 103 114 115 113 115 118 118 117 116 116 114 110 105 102 102 106 108 106 103 103 100 95
147 136 149 137 166 235 308 79 171 209 240 154 176 175 154 141 132 130 120 113 102 95 93 102 104 97 93 106 112 109 109 110 108 106 103 101 101 104 107 105 101 100 103 99
155 179 174 176 200 244 311 229 283 230 165 162 161 178 156 157 161 142 127 120 107 96 92 96 100 93 81 83 104 109 107 109 109 106 104 102 99 99 102 106 106 101 97 98
290 114 124 137 253 262 320 345 350 341 294 271 177 181 171 177 168 149 135 126 115 104 102 103 106 102 92 86 92 103 107 106 106 106 104 102 100 95 89 89 94 101 103 105
217 144 124 198 241 319 331 357 354 8 20 31 53 131 164 157 156 146 132 122 116 108 102 105 107 105 100 96 94 96 103 108 107 106 105 103 100 101 91 80 70 80 71 104
210 174 168 209 209 185 231 295 341 2 15 48 88 80 94 133 136 126 122 118 115 111 106 105 104 103 100 98 94 92 99 109 112 110 106 106 106 103 101 98 83 63 74 78
Height
1477 1484 1489 1487 1486 1487 1488 1492 1494 1486 1477 1478 1479 1478 1474 1472 1473 1473 1474 1475 1476 1477 1480 1482 1485 1488 1491 1494 1498 1502 1506 1510 1515 1519 1523 1527 1530 1533 1537 1539 1542 1545 1547 1550
1482 1485 1479 1479 1481 1484 1487 1492 1492 1483 1476 1478 1480 1479 1473 1472 1472 1472 1473 1474 1474 1476 1479 1481 1483 1486 1489 1492 1495 1499 1504 1509 1513 1517 1521 1525 1529 1532 1535 1538 1541 1544 1546 1549
1480 1477 1472 1477 1481 1485 1487 1490 1488 1486 1480 1478 1481 1483 1476 1472 1471 1471 1471 1471 1473 1475 1477 1479 1481 1482 1486 1490 1493 1497 1502 1507 1511 1516 1520 1524 1527 1531 1534 1536 1539 1542 1545 1547
1475 1471 1472 1475 1478 1481 1489 1479 1480 1482 1489 1495 1488 1501 1482 1475 1472 1469 1469 1470 1472 1474 1476 1477 1478 1480 1484 1488 1493 1496 1501 1506 1510 1514 1518 1521 1524 1528 1531 1534 1537 1540 1543 1545
1472 1467 1470 1474 1473 1474 1478 1473 1476 1480 1487 1495 1492 1500 1490 1477 1474 1469 1468 1469 1470 1472 1474 1475 1477 1480 1484 1488 1492 1496 1500 1504 1508 1512 1516 1520 1523 1527 1530 1533 1536 1538 1541 1543
1464 1461 1462 1464 1463 1466 1468 1475 1482 1490 1496 1506 1495 1499 1494 1480 1472 1468 1467 1467 1469 1471 1472 1474 1477 1481 1484 1487 1491 1495 1499 1503 1507 1511 1515 1518 1521 1525 1528 1530 1533 1536 1539 1541
1467 1462 1458 1458 1464 1465 1470 1488 1507 1507 1515 1511 1495 1496 1491 1469 1465 1464 1465 1466 1468 1470 1472 1474 1477 1480 1484 1487 1490 1494 1498 1502 1505 1509 1513 1516 1519 1523 1526 1529 1531 1534 1536 1539
1476 1474 1457 1453 1459 1467 1472 1482 1504 1513 1515 1508 1496 1496 1479 1464 1462 1462 1463 1464 1467 1469 1471 1474 1476 1479 1483 1486 1490 1493 1497 1500 1504 1507 1511 1514 1517 1521 1524 1527 1530 1532 1534 1537
1474 1471 1451 1448 1448 1456 1471 1478 1477 1497 1503 1507 1500 1488 1472 1462 1463 1462 1463 1464 1466 1467 1470 1473 1475 1478 1482 1485 1488 1492 1495 1498 1502 1505 1509 1512 1516 1519 1522 1525 1528 1530 1532 1535
1457 1465 1452 1447 1448 1452 1458 1469 1485 1497 1510 1511 1499 1491 1484 1467 1464 1463 1463 1463 1465 1467 1469 1472 1475 1478 1481 1485 1488 1491 1494 1497 1500 1503 1506 1510 1513 1516 1519 1522 1525 1527 1530 1532
1450 1461 1458 1452 1455 1458 1463 1470 1479 1493 1495 1507 1507 1494 1466 1464 1461 1462 1462 1462 1464 1466 1468 1471 1474 1478 1481 1484 1487 1489 1492 1495 1498 1501 1504 1507 1510 1513 1516 1519 1522 1524 1527 1530
1447 1460 1468 1459 1450 1448 1452 1461 1473 1485 1493 1497 1500 1490 1458 1458 1459 1460 1460 1461 1463 1465 1467 1470 1473 1476 1480 1482 1485 1488 1491 1493 1496 1499 1502 1505 1508 1510 1513 1516 1519 1522 1524 1527
1445 1459 1473 1470 1464 1454 1454 1458 1465 1474 1488 1497 1497 1483 1458 1457 1458 1459 1460 1461 1462 1464 1467 1470 1472 1475 1478 1480 1483 1486 1489 1491 1494 1497 1500 1502 1505 1507 1510 1513 1516 1519 1521 1524
1439 1455 1464 1472 1467 1456 1456 1457 1462 1468 1484 1489 1483 1473 1461 1458 1458 1458 1460 1461 1462 1464 1466 1469 1471 1474 1477 1479 1482 1485 1487 1490 1492 1495 1498 1500 1503 1505 1508 1510 1513 1516 1519 1521
1438 1453 1453 1452 1449 1449 1451 1453 1457 1460 1466 1474 1469 1467 1459 1456 1456 1457 1458 1461 1463 1465 1467 1469 1471 1474 1476 1479 1481 1484 1486 1488 1490 1493 1496 1499 1501 1504 1506 1508 1511 1514 1516 1519
1442 1450 1451 1452 1448 1448 1452 1452 1453 1455 1458 1460 1461 1461 1454 1454 1455 1456 1458 1460 1462 1464 1466 1469 1471 1473 1476 1478 1480 1483 1485 1487 1489 1492 1494 1497 1500 1502 1504 1507 1509 1511 1514 1517
1447 1451 1459 1462 1453 1451 1463 1456 1455 1457 1457 1457 1461 1458 1455 1455 1455 1456 1457 1459 1461 1463 1465 1468 1470 1472 1474 1477 1479 1482 1484 1486 1489 1491 1494 1496 1498 1501 1503 1506 1508 1510 1512 1515
1447 1454 1463 1465 1460 1471 1463 1451 1451 1455 1456 1455 1455 1455 1455 1455 1456 1457 1458 1459 1461 1462 1464 1466 1469 1471 1474 1476 1478 1481 1483 1485 1488 1490 1493 1495 1497 1500 1502 1504 1507 1509 1511 1514
1442 1450 1463 1470 1470 1465 1457 1452 1452 1455 1458 1455 1455 1455 1456 1456 1456 1458 1459 1460 1461 1462 1464 1466 1468 1470 1473 1475 1477 1479 1482 1484 1487 1489 1491 1494 1497 1499 1502 1504 1506 1509 1511 1513
1445 1447 1459 1468 1469 1473 1459 1450 1450 1453 1460 1454 1454 1455 1456 1456 1460 1460 1459 1460 1461 1462 1464 1465 1467 1469 1471 1473 1475 1477 1480 1483 1486 1488 1491 1494 1497 1499 1501 1504 1506 1509 1511 1514
1452 1456 1460 1465 1466 1462 1453 1450 1450 1463 1460 1452 1452 1453 1454 1455 1457 1457 1458 1459 1461 1462 1464 1465 1466 1468 1470 1473 1475 1477 1479 1482 1485 1488 1491 1494 1497 1500 1502 1505 1507 1510 1512 1515
1454 1458 1462 1465 1467 1466 1451 1450 1453 1453 1450 1450 1451 1453 1454 1454 1455 1456 1457 1459 1461 1462 1464 1465 1466 1468 1470 1473 1475 1477 1480 1483 1486 1488 1491 1494 1497 1500 1503 1506 1509 1511 1514 1516
1453 1454 1456 1458 1459 1453 1451 1450 1450 1449 1449 1449 1451 1452 1453 1453 1454 1456 1458 1460 1461 1462 1464 1466 1467 1469 1472 1474 1476 1478 1481 1484 1486 1489 1492 1496 1499 1501 1505 1507 1510 1513 1516 1518
1450 1450 1453 1454 1452 1451 1450 1450 1449 1449 1449 1449 1449 1450 1451 1452 1454 1456 1458 1460 1462 1463 1465 1467 1469 1470 1473 1476 1478 1480 1483 1485 1488 1491 1494 1497 1500 1503 1507 1510 1513 1516 1518 1520
1449 1450 1452 1453 1451 1450 1449 1449 1449 1449 1449 1449 1449 1450 1451 1452 1453 1455 1458 1460 1462 1464 1467 1469 1471 1472 1475 1478 1480 1483 1485 1488 1490 1493 1496 1499 1502 1505 1509 1512 1516 1519 1522 1524
1448 1449 1451 1451 1448 1449 1449 1449 1449 1449 1449 1449 1449 1449 1450 1451 1453 1455 1458 1461 1463 1465 1468 1470 1472 1475 1478 1481 1483 1485 1488 1491 1493 1496 1499 1503 1506 1509 1512 1515 1518 1523 1525 1528